Gulkana, AK

1:03 AM AKST on February 25, 2018 (GMT -0900)
Gulkana

Weather History for PAGK - November, 2012

Change the Weather History Date:

Friday, November 16, 2012

  Actual Average Record
Temperature  
Mean Temperature 4 °F -  
Max Temperature 14 °F 11 °F 38 °F (1979)
Min Temperature -5 °F -4 °F -30 °F (1985)
Degree Days  
Heating Degree Days 60    
Moisture  
Dew Point -2 °F    
Average Humidity 68    
Maximum Humidity 84    
Minimum Humidity 37    
Precipitation  
Precipitation 0.01 in - - ()
Snow  
Snow 0.00 in - - ()
Snow Depth 9.00 in    
Sea Level Pressure  
Sea Level Pressure 29.75 in    
Wind  
Wind Speed 10 mph (North)    
Max Wind Speed 18 mph    
Max Gust Speed 30 mph    
Visibility 10 miles    
Events Snow    
Averages and records for this station are not official NWS values.
T = Trace of Precipitation, MM = Missing Value Source: NWS Daily Summary

Daily Weather History Graph

Daily Weather History Graph

Search for Another Location

Airport or City:

Trip Planner

Search our weather history database for the weather conditions in past years. The results will help you decide how hot, cold, wet, or windy it might be!

Date:

Astronomy

Nov. 16, 2012 Rise Set
Actual Time 8:59 AM AKST 3:53 PM AKST
Civil Twilight 8:04 AM AKST 4:48 PM AKST
Nautical Twilight 7:07 AM AKST 5:44 PM AKST
Astronomical Twilight 6:15 AM AKST 6:37 PM AKST
Moon 12:19 PM AKST (11/16) 6:50 PM AKST (11/16)
Length of Visible Light 8h 43m
Length of Day
6h 54m
Waxing Crescent, 13% of the Moon is Illuminated
Nov 16
Waxing Crescent
Nov 20
First Quarter
Nov 28
Full
Dec 6
Last Quarter
Dec 12
New

Hourly Weather History & Observations

Time (AKST) Temp. Windchill Dew Point Humidity Pressure Visibility Wind Dir Wind Speed Gust Speed Precip Events Conditions
12:53 AM 5.0 °F -6.9 °F 1.0 °F 84% 29.82 in 10.0 mi NW 6.9 mph - N/A   Partly Cloudy
1:53 AM 10.0 °F -1.9 °F 3.9 °F 76% 29.82 in 10.0 mi NW 8.1 mph - N/A   Clear
3:53 AM 10.9 °F -3.4 °F 3.9 °F 73% 29.81 in 10.0 mi NNW 11.5 mph - N/A   Clear
4:53 AM 10.9 °F -2.6 °F 3.9 °F 73% 29.81 in 10.0 mi NNW 10.4 mph - N/A   Clear
5:53 AM 12.0 °F -3.4 °F 3.9 °F 70% 29.82 in 10.0 mi NNW 13.8 mph 20.7 mph N/A   Clear
6:09 AM 10.4 °F -5.4 °F 3.2 °F 73% 29.66 in 10.0 mi NW 13.8 mph 24.2 mph N/A   Partly Cloudy
6:53 AM 10.9 °F -4.7 °F 3.0 °F 70% 29.81 in 10.0 mi NNW 13.8 mph 21.9 mph N/A   Partly Cloudy
7:53 AM 9.0 °F -6.6 °F 1.9 °F 73% 29.81 in 10.0 mi NW 12.7 mph 19.6 mph N/A   Scattered Clouds
8:53 AM 10.0 °F -4.5 °F 1.0 °F 67% 29.81 in 10.0 mi NNW 11.5 mph - N/A   Scattered Clouds
9:53 AM 10.0 °F -2.9 °F -0.0 °F 64% 29.81 in 10.0 mi NNW 9.2 mph - 0.01 in   Scattered Clouds
10:53 AM 12.0 °F -3.4 °F -0.9 °F 56% 29.81 in 10.0 mi NNW 13.8 mph 24.2 mph N/A   Scattered Clouds
11:53 AM 10.9 °F -1.8 °F -0.0 °F 61% 29.79 in 10.0 mi NNW 9.2 mph - N/A   Scattered Clouds
12:53 PM 12.9 °F -4.4 °F -0.9 °F 54% 29.77 in 10.0 mi NNE 18.4 mph 29.9 mph N/A   Scattered Clouds
1:53 PM 10.9 °F -6.5 °F -2.9 °F 54% 29.77 in 10.0 mi NNE 17.3 mph 26.5 mph N/A   Scattered Clouds
2:53 PM 10.0 °F -7.1 °F -4.0 °F 53% 29.75 in 10.0 mi North 16.1 mph 25.3 mph N/A   Scattered Clouds
3:53 PM 8.1 °F -9.6 °F -5.1 °F 55% 29.75 in 10.0 mi North 16.1 mph 25.3 mph N/A   Scattered Clouds
4:53 PM 7.0 °F -8.3 °F -5.1 °F 58% 29.75 in 10.0 mi North 11.5 mph 20.7 mph N/A   Scattered Clouds
5:53 PM 5.0 °F -10.0 °F -5.1 °F 63% 29.75 in 10.0 mi NNE 10.4 mph - N/A   Mostly Cloudy
6:53 PM 3.9 °F -8.2 °F -6.0 °F 64% 29.76 in 10.0 mi NE 6.9 mph - N/A   Mostly Cloudy
7:53 PM 3.9 °F -5.3 °F -6.0 °F 64% 29.76 in 10.0 mi ENE 4.6 mph - N/A   Mostly Cloudy
8:53 PM -0.0 °F -9.9 °F -4.0 °F 83% 29.77 in 10.0 mi ENE 4.6 mph - N/A   Scattered Clouds
9:29 PM 1.4 °F -8.3 °F -4.0 °F 78% 29.60 in 9.0 mi NNE 4.6 mph - 0.00 in Snow Light Snow
9:36 PM 1.4 °F -8.3 °F -4.0 °F 78% 29.60 in 9.0 mi NE 4.6 mph - 0.00 in   Overcast
9:53 PM 1.9 °F -7.6 °F -4.0 °F 76% 29.76 in 9.0 mi ENE 4.6 mph - 0.00 in   Overcast
10:29 PM 1.4 °F -6.2 °F -4.0 °F 78% 29.59 in 4.0 mi ENE 3.5 mph - 0.00 in Snow Light Snow
10:53 PM -0.9 °F - -5.1 °F 83% 29.75 in 10.0 mi Calm Calm - 0.00 in   Overcast
11:18 PM -5.8 °F - -9.4 °F 84% 29.59 in 10.0 mi Calm Calm - N/A   Mostly Cloudy
11:32 PM -5.8 °F - -9.4 °F 84% 29.59 in 10.0 mi Calm Calm - N/A   Mostly Cloudy
11:53 PM -4.0 °F -12.4 °F -8.0 °F 83% 29.75 in 10.0 mi North 3.5 mph - N/A   Overcast